Location: Praha
(50.0830°N, 14.4670°E)
Time: 01:12:20
(UTC+02:00)

ISS - Visible Passes

Search period start: 28 October 2021 00:00
Search period end: 06 November 2021 23:00
Orbit: 417 x 423 km, 51.6° (Epoch: 27 October)

Date Brightness Start Highest point End Pass type
(mag) Time Alt. Az. Time Alt. Az. Time Alt. Az.
28 Oct -3.3 05:35:41 57° SE 05:35:41 57° SE 05:38:52 10° ENE visible
28 Oct -3.6 07:09:01 10° W 07:12:23 66° N 07:15:45 10° E visible
29 Oct -0.9 04:50:27 18° E 04:50:27 18° E 04:51:33 10° E visible
29 Oct -3.8 06:23:26 28° W 06:25:05 73° N 06:28:28 10° ENE visible
30 Oct -3.5 05:38:10 68° ENE 05:38:10 68° ENE 05:41:10 10° ENE visible
30 Oct -3.6 07:11:23 10° WNW 07:14:46 67° N 07:18:07 10° E visible
31 Oct -0.9 03:52:51 18° ENE 03:52:51 18° ENE 03:53:52 10° ENE visible
31 Oct -3.6 05:25:49 28° WNW 05:27:26 64° N 05:30:47 10° E visible
01 Nov -3.3 04:40:29 59° NE 04:40:29 59° NE 04:43:28 10° E visible
01 Nov -3.7 06:13:40 10° WNW 06:17:03 89° NNE 06:20:26 10° ESE visible
02 Nov -0.9 03:55:08 18° ENE 03:55:08 18° ENE 03:56:07 10° ENE visible
02 Nov -3.7 05:28:06 28° WNW 05:29:44 75° N 05:33:07 10° E visible
03 Nov -3.4 04:42:45 61° NE 04:42:45 61° NE 04:45:46 10° E visible
03 Nov -3.3 06:15:55 10° WNW 06:19:13 53° SSW 06:22:31 10° SE visible
04 Nov -0.9 03:57:25 18° E 03:57:25 18° E 03:58:24 10° E visible
04 Nov -3.8 05:30:24 29° W 05:31:57 72° SSW 05:35:18 10° ESE visible
05 Nov -3.4 04:45:05 65° ESE 04:45:05 65° ESE 04:48:01 10° ESE visible
05 Nov -2.4 06:18:18 10° W 06:21:12 26° SW 06:24:05 10° SSE visible
06 Nov -0.8 03:59:49 17° E 03:59:49 17° E 04:00:40 10° E visible
06 Nov -3.0 05:32:48 27° WSW 05:33:59 38° SSW 05:37:08 10° SE visible
